Previsão horária em Barra de Carrasco

Hoje, 26 Outubro, Segunda-feira

Tempo Temperatura Precipitação Vento Pressão Humidade
00:00 +19°C° 0 mm 2 m/s 751 mmHg 90%
01:00 +19°C° 0 mm 3 m/s 752 mmHg 91%
02:00 +19°C° 0 mm 3 m/s 752 mmHg 92%
03:00 +19°C° 1.5 mm 5 m/s 753 mmHg 91%
04:00 +17°C° 1.5 mm 7 m/s 753 mmHg 89%
05:00 +16°C° 1.5 mm 9 m/s 754 mmHg 88%
06:00 +16°C° 0.1 mm 9 m/s 755 mmHg 85%
07:00 +16°C° 0.1 mm 8 m/s 755 mmHg 81%
08:00 +16°C° 0.1 mm 8 m/s 756 mmHg 78%
09:00 +17°C° 0 mm 8 m/s 756 mmHg 68%
10:00 +17°C° 0 mm 8 m/s 756 mmHg 58%
11:00 +18°C° 0 mm 8 m/s 757 mmHg 49%
12:00 +18°C° 0 mm 8 m/s 757 mmHg 47%
13:00 +18°C° 0 mm 8 m/s 757 mmHg 44%
14:00 +18°C° 0 mm 7 m/s 757 mmHg 42%
15:00 +17°C° 0 mm 7 m/s 757 mmHg 44%
16:00 +16°C° 0 mm 6 m/s 757 mmHg 47%
17:00 +16°C° 0 mm 5 m/s 757 mmHg 49%
18:00 +15°C° 0 mm 4 m/s 757 mmHg 51%
19:00 +14°C° 0 mm 4 m/s 757 mmHg 54%
20:00 +13°C° 0 mm 4 m/s 758 mmHg 56%
21:00 +13°C° 0 mm 4 m/s 758 mmHg 57%
22:00 +13°C° 0 mm 4 m/s 758 mmHg 59%
23:00 +13°C° 0 mm 4 m/s 757 mmHg 60%

Amanhã, 27 Outubro, Terça-feira

Tempo Temperatura Precipitação Vento Pressão Humidade
00:00 +12°C° 0 mm 3 m/s 757 mmHg 63%
01:00 +12°C° 0 mm 3 m/s 757 mmHg 65%
02:00 +12°C° 0 mm 3 m/s 757 mmHg 67%
03:00 +12°C° 0 mm 3 m/s 757 mmHg 68%
04:00 +12°C° 0 mm 2 m/s 757 mmHg 68%
05:00 +12°C° 0 mm 1 m/s 757 mmHg 69%
06:00 +14°C° 0 mm 1 m/s 757 mmHg 62%
07:00 +16°C° 0 mm 1 m/s 757 mmHg 55%
08:00 +18°C° 0 mm 1 m/s 757 mmHg 48%
09:00 +19°C° 0 mm 2 m/s 757 mmHg 43%
10:00 +20°C° 0 mm 2 m/s 757 mmHg 38%
11:00 +21°C° 0 mm 2 m/s 757 mmHg 33%
12:00 +21°C° 0 mm 2 m/s 756 mmHg 34%
13:00 +21°C° 0 mm 3 m/s 756 mmHg 35%
14:00 +22°C° 0 mm 3 m/s 755 mmHg 36%
15:00 +21°C° 0 mm 4 m/s 755 mmHg 41%
16:00 +20°C° 0 mm 4 m/s 755 mmHg 45%
17:00 +19°C° 0 mm 4 m/s 755 mmHg 50%
18:00 +16°C° 0 mm 5 m/s 755 mmHg 54%
19:00 +15°C° 0 mm 5 m/s 755 mmHg 59%
20:00 +14°C° 0 mm 5 m/s 755 mmHg 63%
21:00 +13°C° 0 mm 5 m/s 755 mmHg 65%
22:00 +13°C° 0 mm 4 m/s 755 mmHg 68%
23:00 +12°C° 0 mm 4 m/s 755 mmHg 70%

Depois de amanhã, 28 Outubro, Quarta-feira

Tempo Temperatura Precipitação Vento Pressão Humidade
00:00 +12°C° 0 mm 3 m/s 755 mmHg 73%
01:00 +13°C° 0 mm 2 m/s 755 mmHg 75%
02:00 +12°C° 0 mm 2 m/s 755 mmHg 78%
03:00 +12°C° 0 mm 2 m/s 756 mmHg 78%
04:00 +12°C° 0 mm 2 m/s 756 mmHg 79%
05:00 +12°C° 0 mm 2 m/s 756 mmHg 80%
06:00 +14°C° 0 mm 2 m/s 756 mmHg 74%
07:00 +16°C° 0 mm 2 m/s 756 mmHg 68%
08:00 +18°C° 0 mm 2 m/s 757 mmHg 61%
09:00 +18°C° 0 mm 2 m/s 757 mmHg 61%
10:00 +19°C° 0 mm 3 m/s 757 mmHg 60%
11:00 +20°C° 0 mm 3 m/s 757 mmHg 60%
12:00 +20°C° 0 mm 4 m/s 757 mmHg 55%
13:00 +21°C° 0 mm 4 m/s 757 mmHg 51%
14:00 +21°C° 0 mm 5 m/s 757 mmHg 46%
15:00 +19°C° 0.3 mm 5 m/s 758 mmHg 58%
16:00 +16°C° 0.3 mm 6 m/s 758 mmHg 69%
17:00 +14°C° 0.3 mm 7 m/s 758 mmHg 80%
18:00 +14°C° 0.2 mm 6 m/s 758 mmHg 79%
19:00 +14°C° 0.2 mm 6 m/s 758 mmHg 78%
20:00 +14°C° 0.2 mm 5 m/s 759 mmHg 77%
21:00 +14°C° 0 mm 5 m/s 759 mmHg 76%
22:00 +14°C° 0 mm 5 m/s 759 mmHg 75%
23:00 +14°C° 0 mm 6 m/s 759 mmHg 74%

29 Outubro, Quinta-feira

Tempo Temperatura Precipitação Vento Pressão Humidade
00:00 +14°C° 0.1 mm 6 m/s 759 mmHg 74%
01:00 +13°C° 0.1 mm 5 m/s 759 mmHg 73%
02:00 +13°C° 0.1 mm 5 m/s 759 mmHg 73%
03:00 +13°C° 0.6 mm 5 m/s 760 mmHg 75%
04:00 +13°C° 0.6 mm 5 m/s 760 mmHg 77%
05:00 +13°C° 0.6 mm 5 m/s 760 mmHg 79%
06:00 +13°C° 0.5 mm 5 m/s 761 mmHg 78%
07:00 +13°C° 0.5 mm 5 m/s 761 mmHg 76%
08:00 +14°C° 0.5 mm 5 m/s 761 mmHg 74%
09:00 +14°C° 0.5 mm 5 m/s 761 mmHg 73%
10:00 +14°C° 0.5 mm 6 m/s 761 mmHg 72%
11:00 +14°C° 0.5 mm 6 m/s 761 mmHg 71%
12:00 +14°C° 0.4 mm 7 m/s 761 mmHg 72%
13:00 +14°C° 0.4 mm 7 m/s 761 mmHg 72%
14:00 +12°C° 0.4 mm 8 m/s 761 mmHg 73%
15:00 +13°C° 0 mm 8 m/s 761 mmHg 71%
16:00 +13°C° 0 mm 8 m/s 762 mmHg 69%
17:00 +13°C° 0 mm 8 m/s 762 mmHg 66%
18:00 +13°C° 0 mm 8 m/s 762 mmHg 66%
19:00 +12°C° 0 mm 8 m/s 762 mmHg 66%
20:00 +12°C° 0 mm 8 m/s 762 mmHg 66%
21:00 +12°C° 0 mm 8 m/s 762 mmHg 69%
22:00 +12°C° 0 mm 8 m/s 763 mmHg 72%
23:00 +12°C° 0 mm 8 m/s 763 mmHg 74%

30 Outubro, Sexta-feira

Tempo Temperatura Precipitação Vento Pressão Humidade
00:00 +12°C° 0.1 mm 8 m/s 763 mmHg 74%
01:00 +12°C° 0.1 mm 8 m/s 763 mmHg 75%
02:00 +12°C° 0.1 mm 8 m/s 763 mmHg 75%
03:00 +12°C° 0 mm 8 m/s 763 mmHg 75%
04:00 +12°C° 0 mm 7 m/s 763 mmHg 75%
05:00 +12°C° 0 mm 7 m/s 763 mmHg 75%
06:00 +14°C° 0 mm 7 m/s 764 mmHg 72%
07:00 +14°C° 0 mm 7 m/s 765 mmHg 69%
08:00 +15°C° 0 mm 7 m/s 765 mmHg 67%
09:00 +15°C° 0.1 mm 7 m/s 765 mmHg 65%
10:00 +16°C° 0.1 mm 7 m/s 766 mmHg 63%
11:00 +17°C° 0.1 mm 7 m/s 766 mmHg 61%
12:00 +17°C° 0 mm 7 m/s 766 mmHg 58%
13:00 +17°C° 0 mm 7 m/s 766 mmHg 55%
14:00 +17°C° 0 mm 7 m/s 766 mmHg 53%
15:00 +17°C° 0 mm 7 m/s 766 mmHg 55%
16:00 +16°C° 0 mm 7 m/s 767 mmHg 58%
17:00 +15°C° 0 mm 7 m/s 767 mmHg 61%
18:00 +15°C° 0 mm 7 m/s 767 mmHg 65%
19:00 +14°C° 0 mm 7 m/s 767 mmHg 69%
20:00 +12°C° 0 mm 7 m/s 768 mmHg 73%
21:00 +12°C° 0 mm 7 m/s 768 mmHg 73%
22:00 +12°C° 0 mm 7 m/s 768 mmHg 74%
23:00 +13°C° 0 mm 6 m/s 768 mmHg 75%

31 Outubro, Sábado

Tempo Temperatura Precipitação Vento Pressão Humidade
00:00 +13°C° 0 mm 6 m/s 768 mmHg 76%
01:00 +13°C° 0 mm 5 m/s 767 mmHg 76%
02:00 +12°C° 0 mm 5 m/s 767 mmHg 77%
Mostrar mais